• In Hungary
  • List of Countries
  • For 7 days
  • Water Temperature
  • Satellite Maps
  • Weather Map
  • News
  • Weather Widgets
  • user-avatar
    Login

    Hourly Weather Sarafovo

    Today, 14 November, Wednesday

    Time Temperature Precipitation Wind Pressure Humidity
    00:00 +7°C° 0 mm 3 mps 769 mmHg 85%
    01:00 +7°C° 0 mm 3 mps 768 mmHg 86%
    02:00 +7°C° 0 mm 3 mps 768 mmHg 88%
    03:00 +7°C° 0 mm 3 mps 768 mmHg 89%
    04:00 +6°C° 0 mm 2 mps 767 mmHg 89%
    05:00 +6°C° 0 mm 2 mps 767 mmHg 90%
    06:00 +6°C° 0 mm 2 mps 767 mmHg 89%
    07:00 +6°C° 0 mm 2 mps 767 mmHg 88%
    08:00 +6°C° 0 mm 2 mps 767 mmHg 87%
    09:00 +8°C° 0 mm 2 mps 767 mmHg 80%
    10:00 +9°C° 0 mm 2 mps 766 mmHg 73%
    11:00 +10°C° 0 mm 2 mps 766 mmHg 66%
    12:00 +12°C° 0 mm 2 mps 766 mmHg 64%
    13:00 +12°C° 0 mm 1 mps 766 mmHg 62%
    14:00 +13°C° 0 mm 1 mps 765 mmHg 60%
    15:00 +12°C° 0 mm 2 mps 765 mmHg 62%
    16:00 +12°C° 0 mm 2 mps 765 mmHg 64%
    17:00 +12°C° 0 mm 2 mps 765 mmHg 66%
    18:00 +10°C° 0 mm 2 mps 765 mmHg 68%
    19:00 +10°C° 0 mm 2 mps 765 mmHg 70%
    20:00 +10°C° 0 mm 2 mps 765 mmHg 72%
    21:00 +9°C° 0 mm 2 mps 765 mmHg 73%
    22:00 +9°C° 0 mm 2 mps 764 mmHg 74%
    23:00 +10°C° 0 mm 1 mps 764 mmHg 75%

    Tomorrow, 15 November, Thursday

    Time Temperature Precipitation Wind Pressure Humidity
    00:00 +10°C° 0 mm 1 mps 764 mmHg 76%
    01:00 +10°C° 0 mm 1 mps 764 mmHg 77%
    02:00 +10°C° 0 mm 1 mps 764 mmHg 78%
    03:00 +9°C° 0.2 mm 2 mps 763 mmHg 80%
    04:00 +9°C° 0.2 mm 2 mps 763 mmHg 82%
    05:00 +8°C° 0.2 mm 2 mps 763 mmHg 84%
    06:00 +8°C° 1.1 mm 3 mps 763 mmHg 85%
    07:00 +7°C° 1.1 mm 4 mps 763 mmHg 86%
    08:00 +6°C° 1.1 mm 5 mps 763 mmHg 87%
    09:00 +7°C° 0.8 mm 6 mps 764 mmHg 84%
    10:00 +7°C° 0.8 mm 6 mps 764 mmHg 81%
    11:00 +6°C° 0.8 mm 7 mps 764 mmHg 78%
    12:00 +8°C° 0.4 mm 7 mps 764 mmHg 74%
    13:00 +8°C° 0.4 mm 7 mps 764 mmHg 71%
    14:00 +9°C° 0.4 mm 7 mps 764 mmHg 67%
    15:00 +9°C° 0.1 mm 7 mps 764 mmHg 69%
    16:00 +8°C° 0.1 mm 7 mps 764 mmHg 70%
    17:00 +8°C° 0.1 mm 7 mps 764 mmHg 72%
    18:00 +8°C° 0.1 mm 7 mps 764 mmHg 74%
    19:00 +6°C° 0.1 mm 7 mps 764 mmHg 77%
    20:00 +6°C° 0.1 mm 7 mps 764 mmHg 79%
    21:00 +6°C° 0.1 mm 7 mps 764 mmHg 80%
    22:00 +7°C° 0.1 mm 6 mps 765 mmHg 82%
    23:00 +7°C° 0.1 mm 6 mps 765 mmHg 83%

    Day after tomorrow, 16 November, Friday

    Time Temperature Precipitation Wind Pressure Humidity
    00:00 +5°C° 0.2 mm 7 mps 765 mmHg 83%
    01:00 +5°C° 0.2 mm 7 mps 765 mmHg 84%
    02:00 +4°C° 0.2 mm 7 mps 765 mmHg 84%
    03:00 +4°C° 0.2 mm 7 mps 765 mmHg 84%
    04:00 +4°C° 0.2 mm 7 mps 765 mmHg 85%
    05:00 +4°C° 0.2 mm 7 mps 765 mmHg 85%
    06:00 +2°C° 0.1 mm 8 mps 765 mmHg 83%
    07:00 +2°C° 0.1 mm 8 mps 765 mmHg 82%
    08:00 +2°C° 0.1 mm 8 mps 766 mmHg 81%
    09:00 +4°C° 0 mm 8 mps 766 mmHg 76%
    10:00 +4°C° 0 mm 8 mps 766 mmHg 71%
    11:00 +5°C° 0 mm 8 mps 766 mmHg 66%
    12:00 +5°C° 0.1 mm 8 mps 766 mmHg 67%
    13:00 +5°C° 0.1 mm 8 mps 766 mmHg 69%
    14:00 +4°C° 0.1 mm 8 mps 766 mmHg 70%
    15:00 +4°C° 0.1 mm 8 mps 766 mmHg 70%
    16:00 +4°C° 0.1 mm 8 mps 766 mmHg 69%
    17:00 +4°C° 0.1 mm 8 mps 767 mmHg 68%
    18:00 +4°C° 0.1 mm 8 mps 767 mmHg 68%
    19:00 +2°C° 0.1 mm 8 mps 767 mmHg 68%
    20:00 +2°C° 0.1 mm 8 mps 767 mmHg 68%
    21:00 +2°C° 0 mm 8 mps 767 mmHg 69%
    22:00 +2°C° 0 mm 8 mps 767 mmHg 70%
    23:00 +1°C° 0 mm 8 mps 767 mmHg 72%

    17 November, Saturday

    Time Temperature Precipitation Wind Pressure Humidity
    00:00 +2°C° 0 mm 7 mps 768 mmHg 72%
    01:00 +2°C° 0 mm 7 mps 768 mmHg 72%
    02:00 +2°C° 0 mm 7 mps 768 mmHg 71%
    03:00 0°C° 0 mm 7 mps 768 mmHg 72%
    04:00 0°C° 0 mm 7 mps 768 mmHg 73%
    05:00 0°C° 0 mm 7 mps 768 mmHg 74%
    06:00 -1°C° 0 mm 7 mps 768 mmHg 74%
    07:00 -1°C° 0 mm 7 mps 768 mmHg 74%
    08:00 -1°C° 0 mm 7 mps 769 mmHg 73%
    09:00 0°C° 0 mm 7 mps 769 mmHg 70%
    10:00 +2°C° 0 mm 7 mps 769 mmHg 66%
    11:00 +3°C° 0 mm 7 mps 769 mmHg 63%
    12:00 +3°C° 0 mm 7 mps 769 mmHg 63%
    13:00 +3°C° 0 mm 7 mps 769 mmHg 63%
    14:00 +4°C° 0 mm 7 mps 769 mmHg 63%
    15:00 +3°C° 0 mm 7 mps 769 mmHg 65%
    16:00 +3°C° 0 mm 7 mps 769 mmHg 67%
    17:00 +2°C° 0 mm 7 mps 769 mmHg 68%
    18:00 +2°C° 0 mm 6 mps 770 mmHg 69%
    19:00 +1°C° 0 mm 6 mps 770 mmHg 69%
    20:00 +1°C° 0 mm 6 mps 770 mmHg 69%
    21:00 +1°C° 0 mm 5 mps 770 mmHg 68%
    22:00 +1°C° 0 mm 5 mps 770 mmHg 68%
    23:00 +1°C° 0 mm 5 mps 770 mmHg 67%

    18 November, Sunday

    Time Temperature Precipitation Wind Pressure Humidity
    00:00 0°C° 0 mm 5 mps 770 mmHg 67%
    01:00 0°C° 0 mm 4 mps 770 mmHg 68%
    02:00 -1°C° 0 mm 4 mps 770 mmHg 69%
    03:00 -1°C° 0 mm 4 mps 770 mmHg 69%
    04:00 -1°C° 0 mm 4 mps 769 mmHg 69%
    05:00 -1°C° 0 mm 4 mps 769 mmHg 70%
    06:00 -1°C° 0 mm 4 mps 769 mmHg 69%
    07:00 -1°C° 0 mm 4 mps 769 mmHg 68%
    08:00 -1°C° 0 mm 4 mps 769 mmHg 67%
    09:00 +1°C° 0 mm 4 mps 769 mmHg 62%
    10:00 +3°C° 0 mm 4 mps 769 mmHg 56%
    11:00 +4°C° 0 mm 4 mps 769 mmHg 51%
    12:00 +5°C° 0 mm 4 mps 768 mmHg 50%
    13:00 +7°C° 0 mm 3 mps 767 mmHg 49%
    14:00 +7°C° 0 mm 3 mps 767 mmHg 48%
    15:00 +7°C° 0 mm 3 mps 766 mmHg 51%
    16:00 +5°C° 0 mm 3 mps 766 mmHg 55%
    17:00 +4°C° 0 mm 3 mps 765 mmHg 59%
    18:00 +3°C° 0 mm 3 mps 765 mmHg 60%
    19:00 +3°C° 0 mm 3 mps 764 mmHg 62%
    20:00 +4°C° 0 mm 2 mps 764 mmHg 63%
    21:00 +3°C° 0 mm 2 mps 764 mmHg 63%
    22:00 +3°C° 0 mm 2 mps 763 mmHg 63%
    23:00 +3°C° 0 mm 2 mps 763 mmHg 63%

    19 November, Monday

    Time Temperature Precipitation Wind Pressure Humidity
    00:00 +3°C° 0 mm 2 mps 762 mmHg 63%
    01:00 +3°C° 0 mm 2 mps 761 mmHg 63%
    02:00 +3°C° 0 mm 2 mps 761 mmHg 63%
    03:00 +3°C° 0 mm 2 mps 760 mmHg 63%
    04:00 +3°C° 0 mm 2 mps 760 mmHg 62%
    05:00 +3°C° 0 mm 2 mps 760 mmHg 62%
    06:00 +2°C° 0 mm 3 mps 759 mmHg 62%
    07:00 +2°C° 0 mm 3 mps 759 mmHg 61%
    08:00 +2°C° 0 mm 3 mps 759 mmHg 61%
    09:00 +3°C° 0.1 mm 3 mps 759 mmHg 59%
    10:00 +4°C° 0.1 mm 3 mps 759 mmHg 58%
    11:00 +5°C° 0.1 mm 3 mps 759 mmHg 57%
    12:00 +6°C° 0.2 mm 4 mps 758 mmHg 59%
    13:00 +6°C° 0.2 mm 4 mps 758 mmHg 61%
    14:00 +6°C° 0.2 mm 4 mps 757 mmHg 63%
    15:00 +6°C° 0.2 mm 4 mps 757 mmHg 66%
    16:00 +6°C° 0.2 mm 4 mps 757 mmHg 69%
    17:00 +6°C° 0.2 mm 4 mps 757 mmHg 73%
    18:00 +6°C° 0.2 mm 4 mps 757 mmHg 75%
    19:00 +6°C° 0.2 mm 4 mps 757 mmHg 77%
    20:00 +6°C° 0.2 mm 5 mps 756 mmHg 79%
    21:00 +6°C° 0.3 mm 5 mps 756 mmHg 82%
    22:00 +6°C° 0.3 mm 5 mps 756 mmHg 84%
    23:00 +6°C° 0.3 mm 5 mps 756 mmHg 86%
    Show more